Retour au catalogue

FENGYUN 3A

ActifMétéoSSO
NORAD 32958·PAYLOAD·🇨🇳 China

Lancé May 27, 2008 depuis Taiyuan Satellite Launch Center

Loading…

Prochains Passages (prochaines 24 heures)

TLE

FraisSource: Space-Track

Époque: Sep 14, 2026, 13:27 UTC

1 32958U 08026A   26257.56087487  .00000050  00000-0  44287-4 0  9994
2 32958  98.6932 196.7383 0007813 226.2087 133.8444 14.19586746948086

Suivez FENGYUN 3A en temps réel avec AllMySat

Download on the App Store